DELTA 1 DEB, 42643

Orbit data source: Space-Track

DELTA 1 DEB, 42643 is space debris in SSO originally from a launch on Thu, 12 Jun 1975 UTC launched from the Air Force Western Test Range (AFWTR). Debris objects in space refer to the collection of defunct objects orbiting the Earth. Examples of debris include non-operational satellites, rocket bodies, and fragments generated from explosions, collisions, or faulty payload assembly.

Loading next visibility...
Identifier
42643, 1975-052MC
Orbit
SSO
Country
Flag of USUS
Related business
Manufacturer
Unknown
Mission
Spacecraft
Bus & Motor
Unknown
Mass
Unknown
Launch date (UTC)
1975-06-12 (50 years ago)
Launch vehicle
Unknown
Launch site
Air Force Western Test Range (AFWTR)
Object type
Payload
Rocket body
Debris
Shape & HBR
Unknown shape, 0.1 m
Radar Cross Section
Small (<0.1 m²)

Expand to show TLE details & history
Last TLE update: 1 month ago

TLE from 1 month ago
0 DELTA 1 DEB
1 42643U 75052MC  25245.87933020  .00000266  00000-0  98219-3 0  9994
2 42643  99.6847 112.6736 0292259 238.0163 119.2225 12.88691212994073
Epoch: 2025-09-02T21:06Z
TLE epoch observation values (Epoch: 2025-09-02T21:06:14.129Z)
Latitude
0.00004°
Longitude
173.85049°
Altitude
1,423.985 km
Speed
7.096 km/s
True Right ascension
07h 30m 41s
True Declination
0° 00' 00"
Sunlit
Object was in daylight at epoch
Visualization orbit readout
Latitude
Unknown
Longitude
Unknown
Altitude
Unknown
Speed
Unknown
Apparent Right ascension
Unknown
Apparent Declination
Unknown
Sunlit
N/A
Visualization observer readout
Local Sidereal Time
22:14:26
Azimuth
Unknown
Elevation
Unknown
Doppler factor
Unknown
Orbital elements
Apogee altitude
1,528.623 km
Perigee altitude
1,079.582 km
Semi-major axis
7,682.239 km
Eccentricity
0.02923
Inclination
99.6847°
RAAN
112.6736°
Arg. of periapsis
238.0163°
True anomaly
122.09286°
Mean anomaly
119.2225°
Eccentric anomaly
120.66289°
Mean motion
3.22338 °/min
Orbital period
111.68 mins
BSTAR
0.00098219
Loading maneuver chart data...
Computing Atmospheric mass density...
Loading historical data...
Loading historical data...
Loading historical data...
Loading historical data...
Loading historical data...
Loading historical data...
Loading historical data...

Documentation

Showing up to 5 results
|